Home > Weather > Jaipur > Past weeks

Flag for India Past Weather in Jaipur, Rajasthan, India — Yesterday and Last 2 Weeks

Now
86 °F

Haze.


Feels Like: 88 °F
Forecast: 84 / 105 °F
Wind: 9 mph from East

Location: Jaipur / Sanganer

Current Time: May 31, 2016 at 1:51:07 AM

Latest Report: May 31, 2016 at 1:00 AM


Visibility: 2 mi

Pressure: 29.68 "Hg

Humidity: 52%

Dew Point: 66 °F

Location of JaipurLocation

Past Weather in Jaipur — Graph

°F

Jaipur Temperature Yesterday

Maximum temperature yesterday: 99 °F (at 5:00 PM)
Minimum temperature yesterday: 82 °F (at 3:00 AM)
Average temperature yesterday: 90 °F

High & Low Weather Summary for the Past Weeks

 TemperatureHumidityPressure
High115 °F (May 19, 2:30 PM)74% (May 24, 1:00 AM)29.74 "Hg (May 24, 1:00 AM)
Low77 °F (May 23, 11:00 PM)5% (May 19, 4:30 PM)29.42 "Hg (May 20, 3:30 PM)
Average97 °F30%29.58 "Hg
* Reported May 15 11:30 PM — May 31 12:00 AM, Jaipur, Weather by CustomWeather, © 2016

Note: Actual official high and low records may vary slightly from our data, if they occured in-between our weather recording intervals... More about our weather records

Advertising

Jaipur Weather History for the Previous 24 Hours

Scroll right to see more
 ConditionsComfort  
Time TempWeatherWind HumidityBarometerVisibility
12:00 AM
Tue, May 31
86 °FHaze.12 mph52%29.68 "Hg1 mi
11:30 PM
Mon, May 30
86 °FHaze.12 mph52%29.68 "Hg1 mi
11:00 PM88 °FHaze.12 mph49%29.68 "Hg2 mi
10:00 PM90 °FPassing clouds.14 mph43%29.65 "Hg2 mi
9:30 PM91 °FPassing clouds.13 mph36%29.65 "Hg2 mi
9:00 PM91 °FPassing clouds.13 mph36%29.65 "Hg2 mi
8:30 PM93 °FPassing clouds.15 mph36%29.65 "Hg2 mi
8:00 PM95 °FPassing clouds.14 mph32%29.65 "Hg2 mi
7:30 PM97 °FScattered clouds.15 mph30%29.62 "Hg2 mi
6:30 PM97 °FScattered clouds.9 mph30%29.62 "Hg2 mi
6:00 PM99 °FScattered clouds.5 mph29%29.62 "Hg2 mi
5:30 PM99 °FScattered clouds.5 mph29%29.62 "Hg2 mi
5:00 PM99 °FScattered clouds.1 mph31%29.62 "Hg2 mi
4:30 PM97 °FScattered clouds.6 mph30%29.62 "Hg2 mi
4:00 PM97 °FScattered clouds.7 mph32%29.62 "Hg2 mi
3:30 PM97 °FScattered clouds.7 mph32%29.62 "Hg2 mi
2:30 PM93 °FScattered clouds.12 mph36%29.65 "Hg1 mi
1:00 PM91 °FScattered clouds.16 mph38%29.71 "Hg1 mi
12:30 PM88 °FScattered clouds.16 mph40%29.74 "Hg1 mi
12:00 PM88 °FScattered clouds.17 mph43%29.74 "Hg1 mi
11:00 AM93 °FScattered clouds.8 mph39%29.71 "Hg1 mi
10:30 AM91 °FHaze.6 mph41%29.71 "Hg1 mi
10:00 AM90 °FHaze.5 mph43%29.71 "Hg1 mi
9:30 AM90 °FHaze.7 mph46%29.71 "Hg1 mi
9:00 AM88 °FHaze.8 mph49%29.68 "Hg1 mi
8:30 AM86 °FHaze.9 mph52%29.68 "Hg1 mi
8:00 AM84 °FScattered clouds.8 mph55%29.68 "Hg1 mi
7:30 AM82 °FScattered clouds.8 mph58%29.65 "Hg1 mi
7:00 AM82 °FScattered clouds.9 mph58%29.68 "Hg1 mi
6:30 AM82 °FScattered clouds.10 mph58%29.68 "Hg1 mi
6:00 AM82 °FPassing clouds.12 mph55%29.62 "Hg1 mi
5:30 AM82 °FPassing clouds.10 mph28%29.59 "Hg1 mi
5:00 AM82 °FPassing clouds.9 mph51%29.62 "Hg1 mi
4:00 AM82 °FPassing clouds.13 mph51%29.62 "Hg1 mi
3:00 AM82 °FPassing clouds.14 mph51%29.62 "Hg1 mi
2:00 AM86 °FPassing clouds.20 mph46%29.65 "Hg1 mi
1:00 AM88 °FPassing clouds.13 mph35%29.65 "Hg1 mi
Weather by CustomWeather, © 2016

See weather overviewHow to use our weather pages